THOR ABLESTAR DEB, 660

Orbit data source: Space-Track

THOR ABLESTAR DEB, 660 is space debris in LEO originally from a launch on Thu, 29 Jun 1961 UTC launched from the Air Force Eastern Test Range (AFETR). Debris objects in space refer to the collection of defunct objects orbiting the Earth. Examples of debris include non-operational satellites, rocket bodies, and fragments generated from explosions, collisions, or faulty payload assembly.

Loading next visibility...
Identifier
660, 1961-015HM
Orbit
LEO
Country
Flag of USUS
Related business
Manufacturer
Unknown
Mission
Spacecraft
Bus & Motor
Unknown
Mass
Unknown
Launch date (UTC)
1961-06-29 (65 years ago)
Launch vehicle
Unknown
Launch site
Air Force Eastern Test Range (AFETR)
Object type
Payload
Rocket body
Debris
Shape & HBR
Unknown shape, 0.1 m
Radar Cross Section
Medium (>0.1 m² and <1 m²)

Expand to show TLE details & history
Last TLE update: 1 day ago

TLE from 1 day ago
0 THOR ABLESTAR DEB
1 00660U 61015HM  26163.18609043  .00036351  00000-0  16981-2 0  9999
2 00660  66.4865 182.5601 0016616 231.8870 196.3520 15.19514929384671
Epoch: 2026-06-12T04:27Z
TLE epoch observation values (Epoch: 2026-06-12T04:27:58.213Z)
Latitude
58.47702°
Longitude
-100.0839°
Altitude
527.29 km
Speed
7.599 km/s
True Right ascension
15h 09m 42s
True Declination
58° 19' 06"
Sunlit
Object was in daylight at epoch
Visualization orbit readout
Latitude
Unknown
Longitude
Unknown
Altitude
Unknown
Speed
Unknown
Apparent Right ascension
Unknown
Apparent Declination
Unknown
Sunlit
N/A
Visualization observer readout
Local Sidereal Time
19:33:13
Azimuth
Unknown
Elevation
Unknown
Doppler factor
Unknown
Orbital elements
Apogee altitude
517.077 km
Perigee altitude
494.201 km
Semi-major axis
6,883.776 km
Eccentricity
0.00166
Inclination
66.4865°
RAAN
182.5601°
Arg. of periapsis
231.887°
True anomaly
196.2985°
Mean anomaly
196.352°
Eccentric anomaly
196.32524°
Mean motion
3.80017 °/min
Orbital period
94.73 mins
BSTAR
0.0016981
Loading maneuver chart data...
Computing Atmospheric mass density...
Loading historical data...
Loading historical data...
Loading historical data...
Loading historical data...
Loading historical data...
Loading historical data...
Loading historical data...

Documentation

Showing up to 5 results
|